Terminal Aerodrome Forecast
Issued by NWS

Home | Current Version | Previous Version | Graphics & Text | Print | Product List | Glossary On
Versions: 1 2 3 4 5 6 7 8 9 10 11 12 13 14 15 16 17 18 19
000
FTUS43 KBIS 240213 AAA
TAFJMS
TAF AMD
KJMS 240213Z 2402/2424 11016G22KT 3SM -SHRA BR OVC003
      TEMPO 2408/2411 SCT011 BKN035
     FM241100 14014G20KT P6SM SCT035
     FM241300 14014G20KT P6SM BKN025
     FM241800 15015G21KT P6SM -SHRA SCT011 OVC025=

USA.gov is the U.S. government's official web portal to all federal, state and local government web resources and services.